Regional Weather Roundup
Issued by NWS Jackson, KY

Home | Current Version | Previous Version | Graphics & Text | Print | Product List | Glossary On
Versions: 1 2 3 4 5 6 7 8 9 10 11 12 13 14 15 16 17 18 19 20 21 22 23 24 25 26 27 28 29 30 31 32 33 34 35 36 37 38 39 40 41 42 43 44 45 46 47 48 49 50
000
ASUS43 KJKL 202319
RWRJKL

EAST KENTUCKY HOURLY WEATHER ROUNDUP
NATIONAL WEATHER SERVICE JACKSON KY
700 PM EDT MON OCT 20 2014

NOTE: "FAIR" INDICATES FEW OR NO CLOUDS BELOW 12,000 FEET WITH
NO SIGNIFICANT WEATHER AND/OR OBSTRUCTIONS TO VISIBILITY.

* THESE REPORTS ARE NOT UNDER NWS QUALITY CONTROL AND MAY NOT
  REPORT WEATHER SUCH AS PRECIPITATION AND FOG.

KYZ079-080-083-085-087-088-110-112-115-119-120-210000
...EASTERN KENTUCKY...

CITY           SKY/WX    TMP DP  RH WIND       PRES   REMARKS
JACKSON        CLOUDY    55  49  80 CALM      29.94S
LONDON         CLOUDY    61  46  57 SW5       29.96R
SOMERSET*      CLEAR     57  45  62 SW6       29.97S
MONTICELLO*    CLEAR     58  49  72 SW5       29.98S
WILLIAMSBURG*  PTCLDY    57  48  72 CALM      29.97S
MIDDLESBORO*   PTCLDY    61  49  65 SW5       29.97S
HARLAN APT*    CLOUDY    59  45  58 CALM      29.96F
HAZARD APT*    CLOUDY    55  54  94 CALM      29.95
BLACK MTN*       N/A     46  45  93 SW10        N/A
PIKEVILLE APT* CLOUDY    54  50  87 CALM      29.95S
BIG SANDY*     CLOUDY    56  50  79 S7        29.93F
MOREHEAD APT*  CLOUDY    59  46  63 SW8       29.95R
ASHLAND*       CLOUDY    59  45  58 CALM      29.90R
$$

KYZ035-036-041-042-044-050-067-078-099-210000
...CENTRAL KENTUCKY...

CITY           SKY/WX    TMP DP  RH WIND       PRES   REMARKS
MT STERLING*   CLOUDY    59  48  67 W5        29.94R
FLEMING/MASON* MOCLDY    55  46  71 SW7       29.92R
DANVILLE*      CLEAR     59  45  58 SW5       29.95R
RICHMOND*      CLEAR     59  45  58 SW7       29.93R
LEXINGTON      CLEAR     60  48  64 SW8       29.92R
FRANKFORT      MOCLDY    61  50  67 SW9       29.90R
$$

KYZ091>093-OHZ055-061-077-WVZ005-015-034-035-042-210000
...SOUTHERN OHIO/WEST VIRGINIA...

CITY           SKY/WX    TMP DP  RH WIND       PRES   REMARKS
COVINGTON      MOCLDY    62  49  62 W7        29.87R
COLUMBUS       CLOUDY    53  50  89 E3        29.86F THUNDER
DAYTON         PTCLDY    57  53  86 SW6       29.86F
WILMINGTON     MOCLDY    55  49  80 S7        29.87S
HUNTINGTON     CLOUDY    57  47  69 SW6       29.90S
CHARLESTON     MOCLDY    54  48  80 S5        29.91F
PINEVILLE*     MOCLDY    53  53  99 MISG      30.01S
BECKLEY        CLOUDY    53  43  68 SW7       29.96S
BLUEFIELD      CLOUDY    54  42  64 SW8       29.98F
$$

VAZ002-007-008-TNZ017-027-036-066-071-210000
...SOUTHWEST VIRGINIA/EAST TENNESSEE...

CITY           SKY/WX    TMP DP  RH WIND       PRES   REMARKS
WISE*          CLOUDY    54  43  66 SW10      29.99S
JONESVILLE*    MOCLDY    59  50  72 CALM      30.00S
ABINGDON*      CLOUDY    59  49  69 CALM      29.99R
BRISTOL        CLOUDY    60  49  66 W3        29.98R
KNOXVILLE      CLOUDY    62  51  67 W5        29.98R
OAK RIDGE      CLOUDY    64  52  64 CALM      29.99S
CROSSVILLE     PTCLDY    59  46  62 SW3       30.01S
NASHVILLE      CLEAR     63  49  60 SW5       29.99R
$$

...KEY TO REMARKS...
VSB - VISIBILITY IN MILES
WCI - WIND CHILL INDEX
HX  - HEAT INDEX

$$



USA.gov is the U.S. government's official web portal to all federal, state and local government web resources and services.